Location: Ciula Mare
(45.6000°N, 22.8167°E)
Time: 05:00:47
(UTC+00:00)

Cosmos 1825 - Pass Details

Date: 03 February 2023
Orbit: 480 x 487 km, 82.5° (Epoch: 29 March)

Event Time Altitude Azimuth Distance (km) Brightness Sun altitude
Rises 16:40:11 0° 176° (S) 2,566 5.8 -11.3°
Reaches altitude 10° 16:42:19 10° 171° (S) 1,691 4.9 -11.6°
Maximum altitude 16:45:55 52° 95° (E) 623 2.2 -12.3°
Drops below altitude 10° 16:49:34 10° 18° (NNE) 1,710 4.6 -12.9°
Sets 16:51:43 0° 14° (NNE) 2,598 5.5 -13.3°
